Weather History for KORL - December, 2012

Change the Weather History Date:

Sunday, December 9, 2012

  Actual Average (KMCO) Record (KMCO)
Temperature  
Mean Temperature 73 °F 64 °F  
Max Temperature 80 °F 74 °F 87 °F (1978)
Min Temperature 66 °F 54 °F 29 °F (1934)
Degree Days  
Heating Degree Days 0 4  
Month to date heating degree days 30  
Since 1 July heating degree days 77  
Cooling Degree Days 8 3  
Month to date cooling degree days 27  
Year to date cooling degree days 3381  
Growing Degree Days 23 (Base 50)    
Moisture  
Dew Point 65 °F    
Average Humidity 80    
Maximum Humidity 97    
Minimum Humidity 56    
Precipitation  
Precipitation 0.00 in 0.07 in 2.75 in (1969)
Month to date precipitation 0.73  
Year to date precipitation 48.88  
Sea Level Pressure  
Sea Level Pressure 30.06 in    
Wind  
Wind Speed 2 mph (WSW)    
Max Wind Speed 9 mph    
Max Gust Speed -    
Visibility 10 miles    
Events      
T = Trace of Precipitation, MM = Missing Value Source: NWS Daily Summary

Daily Weather History Graph

Daily Weather History Graph

Search for Another Location

Airport or City:

Trip Planner

Search our weather history database for the weather conditions in past years. The results will help you decide how hot, cold, wet, or windy it might be!

Date:

Astronomy

Dec. 09, 2012 Rise Set
Actual Time 7:06 AM EST 5:29 PM EST
Civil Twilight 6:40 AM EST 5:54 PM EST
Nautical Twilight 6:11 AM EST 6:24 PM EST
Astronomical Twilight 5:42 AM EST 6:53 PM EST
Moon 2:52 AM EST (12/9) 2:22 PM EST (12/9)
Length of Visible Light 11h 14m
Length of Day
10h 22m
Waning Crescent, 19% of the Moon is Illuminated
Dec 9
Waning Crescent
Dec 13
New
Dec 20
First Quarter
Dec 28
Full
Jan 4
Last Quarter

Hourly Weather History & Observations

Time (EST) Temp. Heat Index Dew Point Humidity Pressure Visibility Wind Dir Wind Speed Gust Speed Precip Events Conditions
12:53 AM 71.1 °F - 66.9 °F 87% 30.06 in 10.0 mi Calm Calm - N/A   Overcast
1:53 AM 70.0 °F - 66.9 °F 90% 30.06 in 10.0 mi Calm Calm - N/A   Overcast
2:53 AM 70.0 °F - 66.9 °F 90% 30.04 in 10.0 mi Calm Calm - N/A   Overcast
3:53 AM 68.0 °F - 66.0 °F 93% 30.05 in 10.0 mi NE 3.5 mph - N/A   Scattered Clouds
4:16 AM 68.0 °F - 66.2 °F 94% 30.04 in 10.0 mi Calm Calm - N/A   Mostly Cloudy
4:53 AM 69.1 °F - 66.0 °F 90% 30.05 in 10.0 mi Calm Calm - N/A   Overcast
5:36 AM 66.2 °F - 64.4 °F 94% 30.04 in 10.0 mi East 3.5 mph - N/A   Scattered Clouds
5:53 AM 66.0 °F - 64.9 °F 96% 30.06 in 8.0 mi Calm Calm - N/A   Mostly Cloudy
6:53 AM 68.0 °F - 66.0 °F 93% 30.07 in 10.0 mi Calm Calm - N/A   Partly Cloudy
7:37 AM 66.2 °F - 64.4 °F 94% 30.07 in 8.0 mi Calm Calm - N/A   Mostly Cloudy
7:53 AM 66.9 °F - 66.0 °F 97% 30.09 in 8.0 mi Calm Calm - N/A   Overcast
8:34 AM 69.8 °F - 66.2 °F 88% 30.09 in 10.0 mi WSW 4.6 mph - N/A   Overcast
8:53 AM 70.0 °F - 66.0 °F 87% 30.10 in 10.0 mi SW 6.9 mph - N/A   Overcast
9:51 AM 71.6 °F - 66.2 °F 83% 30.10 in 10.0 mi SSW 4.6 mph - N/A   Mostly Cloudy
9:53 AM 72.0 °F - 66.0 °F 81% 30.11 in 10.0 mi SSW 4.6 mph - N/A   Mostly Cloudy
9:55 AM 73.4 °F - 66.2 °F 78% 30.10 in 10.0 mi SSW 6.9 mph - N/A   Scattered Clouds
10:53 AM 75.0 °F - 66.0 °F 73% 30.11 in 10.0 mi West 5.8 mph - N/A   Scattered Clouds
11:12 AM 75.2 °F - 64.4 °F 69% 30.09 in 10.0 mi Variable 4.6 mph - N/A   Mostly Cloudy
11:19 AM 75.2 °F - 66.2 °F 73% 30.09 in 10.0 mi Variable 3.5 mph - N/A   Scattered Clouds
11:53 AM 77.0 °F - 64.9 °F 66% 30.08 in 10.0 mi Variable 3.5 mph - N/A   Clear
12:53 PM 79.0 °F - 64.0 °F 60% 30.05 in 10.0 mi WSW 8.1 mph - N/A   Partly Cloudy
1:53 PM 79.0 °F - 64.0 °F 60% 30.04 in 10.0 mi West 5.8 mph - N/A   Clear
2:53 PM 80.1 °F 81.5 °F 63.0 °F 56% 30.03 in 10.0 mi West 9.2 mph - N/A   Partly Cloudy
3:53 PM 79.0 °F - 64.0 °F 60% 30.03 in 10.0 mi NW 4.6 mph - N/A   Partly Cloudy
4:53 PM 79.0 °F - 64.0 °F 60% 30.03 in 10.0 mi NW 4.6 mph - N/A   Clear
5:53 PM 75.9 °F - 64.0 °F 67% 30.04 in 10.0 mi WNW 4.6 mph - N/A   Clear
6:53 PM 75.0 °F - 64.0 °F 69% 30.05 in 10.0 mi Calm Calm - N/A   Clear
7:53 PM 70.0 °F - 63.0 °F 78% 30.06 in 10.0 mi Calm Calm - N/A   Clear
8:53 PM 70.0 °F - 64.0 °F 81% 30.06 in 10.0 mi Calm Calm - N/A   Clear
9:53 PM 66.9 °F - 63.0 °F 87% 30.06 in 10.0 mi East 3.5 mph - N/A   Clear
10:53 PM 66.9 °F - 64.0 °F 90% 30.06 in 10.0 mi Calm Calm - N/A   Clear
11:53 PM 68.0 °F - 64.9 °F 90% 30.05 in 10.0 mi Calm Calm - N/A   Clear